Tracking 29892 objects as of 21-Nov-2024
HD Live streaming from Space Station
objects crossing your sky now

STARLINK-3889

Track STARLINK-3889 now!
10-day predictions
STARLINK-3889 is classified as:


NORAD ID: 52331
Int'l Code: 2022-045A
Perigee: 545.9 km
Apogee: 547.9 km
Inclination: 53.2 °
Period: 95.4 minutes
Semi major axis: 6917 km
RCS: Unknown
Launch date: April 29, 2022
Source: United States (US)
Launch site: AIR FORCE EASTERN TEST RANGE (AFETR)
Your satellite tracking list
Your tracking list is empty




NASA's NSSDC Master Catalog

Two Line Element Set (TLE):
1 52331U 22045A   24325.63357515  .00000582  00000-0  54639-4 0  9994
2 52331  53.2159 177.2406 0001451  92.1629 267.9529 15.08842682144078
Source of the keplerian elements: AFSPC